Time,TemperatureF,DewpointF,PressureIn,WindDirection,WindDirectionDegrees,WindSpeedMPH,WindSpeedGustMPH,Humidity,HourlyPrecipIn,Conditions,Clouds,dailyrainin,SoftwareType,DateUTC
2013-03-28 00:00:00,38.2,24.3,30.36,SE,129,1.0,1.0,57,0.00,,,0.00,Wunderground v.1.15,2013-03-28 06:00:00,
2013-03-28 00:06:00,38.1,24.6,30.35,SE,129,1.0,1.0,58,0.00,,,0.00,Wunderground v.1.15,2013-03-28 06:06:00,
2013-03-28 00:12:00,37.8,24.3,30.35,SE,129,0.0,1.0,58,0.00,,,0.00,Wunderground v.1.15,2013-03-28 06:12:00,
2013-03-28 00:17:00,37.5,24.1,30.35,SE,129,0.0,1.0,58,0.00,,,0.00,Wunderground v.1.15,2013-03-28 06:17:00,
2013-03-28 00:24:00,36.6,24.0,30.35,SSE,157,2.0,4.0,60,0.00,,,0.00,Wunderground v.1.15,2013-03-28 06:24:00,
2013-03-28 00:32:00,36.2,24.0,30.35,SSE,154,4.0,4.0,61,0.00,,,0.00,Wunderground v.1.15,2013-03-28 06:32:00,
2013-03-28 00:38:00,36.4,23.4,30.35,SSE,154,2.0,4.0,59,0.00,,,0.00,Wunderground v.1.15,2013-03-28 06:38:00,
2013-03-28 00:46:00,36.5,23.9,30.35,SSE,154,1.0,2.0,60,0.00,,,0.00,Wunderground v.1.15,2013-03-28 06:46:00,
2013-03-28 00:52:00,36.7,23.7,30.35,SSE,151,1.0,2.0,59,0.00,,,0.00,Wunderground v.1.15,2013-03-28 06:52:00,
2013-03-28 00:57:00,37.2,23.8,30.35,SSE,151,0.0,2.0,58,0.00,,,0.00,Wunderground v.1.15,2013-03-28 06:57:00,
2013-03-28 01:05:00,37.2,23.8,30.34,SE,145,1.0,2.0,58,0.00,,,0.00,Wunderground v.1.15,2013-03-28 07:05:00,
2013-03-28 01:11:00,37.1,24.1,30.34,SSE,158,3.0,6.0,59,0.00,,,0.00,Wunderground v.1.15,2013-03-28 07:11:00,
2013-03-28 01:18:00,37.3,24.3,30.34,South,183,6.0,8.0,59,0.00,,,0.00,Wunderground v.1.15,2013-03-28 07:18:00,
2013-03-28 01:25:00,37.9,24.8,30.34,SSE,149,6.0,8.0,59,0.00,,,0.00,Wunderground v.1.15,2013-03-28 07:25:00,
2013-03-28 01:30:00,37.8,24.7,30.33,South,170,4.0,5.0,59,0.00,,,0.00,Wunderground v.1.15,2013-03-28 07:30:00,
2013-03-28 01:41:00,37.9,24.8,30.33,South,170,4.0,6.0,59,0.00,,,0.00,Wunderground v.1.15,2013-03-28 07:41:00,
2013-03-28 01:47:00,38.0,24.5,30.33,SSE,154,5.0,7.0,58,0.00,,,0.00,Wunderground v.1.15,2013-03-28 07:47:00,
2013-03-28 01:54:00,38.2,24.7,30.32,SSE,151,6.0,8.0,58,0.00,,,0.00,Wunderground v.1.15,2013-03-28 07:54:00,
2013-03-28 02:00:00,38.0,24.5,30.32,SE,141,4.0,4.0,58,0.00,,,0.00,Wunderground v.1.15,2013-03-28 08:00:00,
2013-03-28 02:08:00,37.9,24.0,30.33,SSE,154,2.0,5.0,57,0.00,,,0.00,Wunderground v.1.15,2013-03-28 08:08:00,
2013-03-28 02:14:00,38.2,23.9,30.32,SE,139,3.0,5.0,56,0.00,,,0.00,Wunderground v.1.15,2013-03-28 08:14:00,
2013-03-28 02:27:00,36.3,24.1,30.31,SSE,164,7.0,7.0,61,0.00,,,0.00,Wunderground v.1.15,2013-03-28 08:27:00,
2013-03-28 02:32:00,35.8,24.0,30.32,South,172,4.0,6.0,62,0.00,,,0.00,Wunderground v.1.15,2013-03-28 08:32:00,
2013-03-28 02:37:00,35.5,23.8,30.31,South,179,2.0,6.0,62,0.00,,,0.00,Wunderground v.1.15,2013-03-28 08:37:00,
2013-03-28 02:43:00,35.0,24.0,30.32,South,185,2.0,5.0,64,0.00,,,0.00,Wunderground v.1.15,2013-03-28 08:43:00,
2013-03-28 02:49:00,34.1,23.6,30.32,South,185,2.0,2.0,65,0.00,,,0.00,Wunderground v.1.15,2013-03-28 08:49:00,
2013-03-28 02:55:00,34.0,23.8,30.32,South,185,0.0,2.0,66,0.00,,,0.00,Wunderground v.1.15,2013-03-28 08:55:00,
2013-03-28 03:03:00,33.5,23.7,30.31,South,185,0.0,1.0,67,0.00,,,0.00,Wunderground v.1.15,2013-03-28 09:03:00,
2013-03-28 03:09:00,33.5,23.7,30.31,South,185,1.0,1.0,67,0.00,,,0.00,Wunderground v.1.15,2013-03-28 09:09:00,
2013-03-28 03:15:00,33.4,23.6,30.31,South,185,1.0,2.0,67,0.00,,,0.00,Wunderground v.1.15,2013-03-28 09:15:00,
2013-03-28 03:28:00,32.7,23.6,30.31,South,185,1.0,2.0,69,0.00,,,0.00,Wunderground v.1.15,2013-03-28 09:28:00,
2013-03-28 03:36:00,33.1,23.7,30.31,South,186,0.0,1.0,68,0.00,,,0.00,Wunderground v.1.15,2013-03-28 09:36:00,
2013-03-28 03:44:00,33.4,23.6,30.31,South,186,0.0,1.0,67,0.00,,,0.00,Wunderground v.1.15,2013-03-28 09:44:00,
2013-03-28 03:53:00,33.7,23.9,30.31,South,186,0.0,0.0,67,0.00,,,0.00,Wunderground v.1.15,2013-03-28 09:53:00,
2013-03-28 03:59:00,33.7,23.9,30.31,South,185,0.0,0.0,67,0.00,,,0.00,Wunderground v.1.15,2013-03-28 09:59:00,
2013-03-28 04:05:00,33.7,23.9,30.30,South,186,0.0,0.0,67,0.00,,,0.00,Wunderground v.1.15,2013-03-28 10:05:00,
2013-03-28 04:10:00,33.6,23.8,30.30,South,186,1.0,1.0,67,0.00,,,0.00,Wunderground v.1.15,2013-03-28 10:10:00,
2013-03-28 04:19:00,34.0,23.8,30.30,South,185,0.0,0.0,66,0.00,,,0.00,Wunderground v.1.15,2013-03-28 10:19:00,
2013-03-28 05:40:00,34.2,22.9,30.29,SSE,168,1.0,1.0,63,0.00,,,0.00,Wunderground v.1.15,2013-03-28 11:40:00,
2013-03-28 05:49:00,34.4,22.7,30.29,SSE,168,0.0,0.0,62,0.00,,,0.00,Wunderground v.1.15,2013-03-28 11:49:00,
2013-03-28 06:04:00,31.1,22.5,30.30,SSW,199,1.0,2.0,70,0.00,,,0.00,Wunderground v.1.15,2013-03-28 12:04:00,
2013-03-28 06:11:00,30.9,22.6,30.29,SSW,200,1.0,1.0,71,0.00,,,0.00,Wunderground v.1.15,2013-03-28 12:11:00,
2013-03-28 06:20:00,30.8,22.5,30.29,SSW,200,1.0,2.0,71,0.00,,,0.00,Wunderground v.1.15,2013-03-28 12:20:00,
2013-03-28 06:31:00,32.5,22.8,30.29,SSW,201,1.0,3.0,67,0.00,,,0.00,Wunderground v.1.15,2013-03-28 12:31:00,
2013-03-28 06:39:00,32.8,22.7,30.29,SSW,202,1.0,1.0,66,0.00,,,0.00,Wunderground v.1.15,2013-03-28 12:39:00,
2013-03-28 09:19:00,44.1,30.3,30.32,WNW,295,2.0,3.0,58,0.00,,,0.00,Wunderground v.1.15,2013-03-28 15:19:00,
2013-03-28 10:24:00,47.4,29.2,30.34,North,359,4.0,5.0,49,0.00,,,0.00,Wunderground v.1.15,2013-03-28 16:24:00,
2013-03-28 11:26:00,51.9,26.4,30.34,North,8,4.0,6.0,37,0.00,,,0.00,Wunderground v.1.15,2013-03-28 17:26:00,
2013-03-28 11:34:00,52.3,24.7,30.33,North,8,4.0,6.0,34,0.00,,,0.00,Wunderground v.1.15,2013-03-28 17:34:00,
2013-03-28 11:40:00,52.6,26.4,30.33,North,11,3.0,4.0,36,0.00,,,0.00,Wunderground v.1.15,2013-03-28 17:40:00,
2013-03-28 11:45:00,53.1,27.5,30.33,North,354,2.0,4.0,37,0.00,,,0.00,Wunderground v.1.15,2013-03-28 17:45:00,
2013-03-28 11:52:00,53.4,29.0,30.33,NNE,26,3.0,4.0,39,0.00,,,0.00,Wunderground v.1.15,2013-03-28 17:52:00,
2013-03-28 11:58:00,53.7,29.3,30.33,North,10,3.0,6.0,39,0.00,,,0.00,Wunderground v.1.15,2013-03-28 17:58:00,
2013-03-28 12:05:00,54.2,28.5,30.33,NNE,16,3.0,6.0,37,0.00,,,0.00,Wunderground v.1.15,2013-03-28 18:05:00,
2013-03-28 12:10:00,54.5,29.4,30.33,NNE,13,3.0,3.0,38,0.00,,,0.00,Wunderground v.1.15,2013-03-28 18:10:00,
2013-03-28 12:17:00,54.9,28.4,30.33,NE,39,3.0,6.0,36,0.00,,,0.00,Wunderground v.1.15,2013-03-28 18:17:00,
2013-03-28 12:23:00,55.2,29.4,30.32,NE,39,2.0,5.0,37,0.00,,,0.00,Wunderground v.1.15,2013-03-28 18:23:00,
2013-03-28 12:28:00,55.3,28.8,30.32,NE,43,2.0,5.0,36,0.00,,,0.00,Wunderground v.1.15,2013-03-28 18:28:00,
2013-03-28 12:34:00,55.5,29.0,30.32,NE,48,3.0,5.0,36,0.00,,,0.00,Wunderground v.1.15,2013-03-28 18:34:00,
2013-03-28 12:42:00,55.8,29.2,30.32,NNE,16,3.0,5.0,36,0.00,,,0.00,Wunderground v.1.15,2013-03-28 18:42:00,
2013-03-28 12:53:00,56.5,29.1,30.32,North,10,3.0,7.0,35,0.00,,,0.00,Wunderground v.1.15,2013-03-28 18:53:00,
2013-03-28 13:00:00,56.9,30.2,30.32,NE,54,4.0,4.0,36,0.00,,,0.00,Wunderground v.1.15,2013-03-28 19:00:00,
2013-03-28 13:09:00,57.2,29.8,30.31,ENE,58,3.0,5.0,35,0.00,,,0.00,Wunderground v.1.15,2013-03-28 19:09:00,
2013-03-28 13:20:00,57.7,30.2,30.31,ESE,104,4.0,4.0,35,0.00,,,0.00,Wunderground v.1.15,2013-03-28 19:20:00,
2013-03-28 13:27:00,58.2,29.2,30.31,ESE,108,3.0,7.0,33,0.00,,,0.00,Wunderground v.1.15,2013-03-28 19:27:00,
2013-03-28 13:32:00,58.5,30.2,30.31,NE,47,4.0,8.0,34,0.00,,,0.00,Wunderground v.1.15,2013-03-28 19:32:00,
2013-03-28 13:38:00,58.7,28.9,30.30,ESE,109,4.0,8.0,32,0.00,,,0.00,Wunderground v.1.15,2013-03-28 19:38:00,
2013-03-28 13:43:00,58.8,26.6,30.30,NNE,25,4.0,8.0,29,0.00,,,0.00,Wunderground v.1.15,2013-03-28 19:43:00,
2013-03-28 13:54:00,59.1,30.7,30.30,East,89,4.0,6.0,34,0.00,,,0.00,Wunderground v.1.15,2013-03-28 19:54:00,
2013-03-28 14:00:00,59.4,29.5,30.30,ENE,78,4.0,6.0,32,0.00,,,0.00,Wunderground v.1.15,2013-03-28 20:00:00,
2013-03-28 14:07:00,59.9,27.5,30.30,ENE,60,2.0,6.0,29,0.00,,,0.00,Wunderground v.1.15,2013-03-28 20:07:00,
2013-03-28 14:12:00,60.0,25.9,30.30,ESE,112,2.0,5.0,27,0.00,,,0.00,Wunderground v.1.15,2013-03-28 20:12:00,
2013-03-28 14:17:00,60.4,28.0,30.30,ENE,70,2.0,7.0,29,0.00,,,0.00,Wunderground v.1.15,2013-03-28 20:17:00,
2013-03-28 14:23:00,60.1,27.7,30.30,ESE,113,4.0,7.0,29,0.00,,,0.00,Wunderground v.1.15,2013-03-28 20:23:00,
2013-03-28 14:29:00,59.9,27.5,30.30,NE,50,3.0,6.0,29,0.00,,,0.00,Wunderground v.1.15,2013-03-28 20:29:00,
2013-03-28 14:36:00,60.1,26.0,30.30,East,83,3.0,6.0,27,0.00,,,0.00,Wunderground v.1.15,2013-03-28 20:36:00,
2013-03-28 14:42:00,60.3,25.2,30.29,NNE,31,2.0,3.0,26,0.00,,,0.00,Wunderground v.1.15,2013-03-28 20:42:00,
2013-03-28 14:48:00,60.6,25.5,30.29,East,83,2.0,5.0,26,0.00,,,0.00,Wunderground v.1.15,2013-03-28 20:48:00,
2013-03-28 15:00:00,60.9,24.8,30.29,ENE,57,3.0,3.0,25,0.00,,,0.00,Wunderground v.1.15,2013-03-28 21:00:00,
2013-03-28 15:12:00,61.6,25.4,30.29,SE,135,2.0,3.0,25,0.00,,,0.00,Wunderground v.1.15,2013-03-28 21:12:00,
2013-03-28 16:21:00,61.9,27.5,30.27,South,185,4.0,7.0,27,0.00,,,0.00,Wunderground v.1.15,2013-03-28 22:21:00,
2013-03-28 16:29:00,62.2,27.8,30.28,South,186,5.0,5.0,27,0.00,,,0.00,Wunderground v.1.15,2013-03-28 22:29:00,
2013-03-28 16:35:00,62.1,25.8,30.28,WSW,251,4.0,5.0,25,0.00,,,0.00,Wunderground v.1.15,2013-03-28 22:35:00,
2013-03-28 16:45:00,62.1,25.8,30.28,WSW,251,1.0,3.0,25,0.00,,,0.00,Wunderground v.1.15,2013-03-28 22:45:00,
2013-03-28 16:58:00,62.3,26.9,30.28,East,92,1.0,3.0,26,0.00,,,0.00,Wunderground v.1.15,2013-03-28 22:58:00,
2013-03-28 17:03:00,62.6,26.2,30.28,SSW,193,1.0,4.0,25,0.00,,,0.00,Wunderground v.1.15,2013-03-28 23:03:00,
2013-03-28 17:10:00,62.7,27.3,30.28,South,170,2.0,2.0,26,0.00,,,0.00,Wunderground v.1.15,2013-03-28 23:10:00,
2013-03-28 17:19:00,62.4,27.0,30.28,South,171,3.0,5.0,26,0.00,,,0.00,Wunderground v.1.15,2013-03-28 23:19:00,
2013-03-28 17:27:00,61.5,27.2,30.28,South,173,3.0,5.0,27,0.00,,,0.00,Wunderground v.1.15,2013-03-28 23:27:00,
2013-03-28 17:58:00,61.3,26.1,30.29,SSE,159,1.0,2.0,26,0.00,,,0.00,Wunderground v.1.15,2013-03-28 23:58:00,
2013-03-28 18:05:00,61.1,26.8,30.29,SSE,159,0.0,2.0,27,0.00,,,0.00,Wunderground v.1.15,2013-03-29 00:05:00,
2013-03-28 18:13:00,60.6,29.0,30.29,SSE,160,2.0,5.0,30,0.00,,,0.00,Wunderground v.1.15,2013-03-29 00:13:00,
2013-03-28 18:18:00,60.3,27.9,30.29,SSE,161,2.0,5.0,29,0.00,,,0.00,Wunderground v.1.15,2013-03-29 00:18:00,
2013-03-28 18:30:00,59.8,27.4,30.29,SSE,161,2.0,3.0,29,0.00,,,0.00,Wunderground v.1.15,2013-03-29 00:30:00,
2013-03-28 18:49:00,56.7,30.0,30.29,SSE,156,3.0,4.0,36,0.00,,,0.00,Wunderground v.1.15,2013-03-29 00:49:00,
2013-03-28 18:55:00,55.3,30.1,30.29,SSE,154,3.0,4.0,38,0.00,,,0.00,Wunderground v.1.15,2013-03-29 00:55:00,
2013-03-28 19:02:00,54.0,30.2,30.29,SSE,147,4.0,6.0,40,0.00,,,0.00,Wunderground v.1.15,2013-03-29 01:02:00,
2013-03-28 19:16:00,53.4,29.0,30.29,SE,141,5.0,7.0,39,0.00,,,0.00,Wunderground v.1.15,2013-03-29 01:16:00,
2013-03-28 19:23:00,52.8,29.1,30.29,SE,144,6.0,7.0,40,0.00,,,0.00,Wunderground v.1.15,2013-03-29 01:23:00,
2013-03-28 19:29:00,52.1,29.1,30.29,SE,144,5.0,5.0,41,0.00,,,0.00,Wunderground v.1.15,2013-03-29 01:29:00,
2013-03-28 19:34:00,51.7,29.3,30.29,SSE,151,5.0,5.0,42,0.00,,,0.00,Wunderground v.1.15,2013-03-29 01:34:00,
2013-03-28 19:39:00,50.5,29.4,30.29,SSE,149,4.0,5.0,44,0.00,,,0.00,Wunderground v.1.15,2013-03-29 01:39:00,
2013-03-28 19:44:00,49.6,29.1,30.29,SSE,149,5.0,6.0,45,0.00,,,0.00,Wunderground v.1.15,2013-03-29 01:44:00,
2013-03-28 19:49:00,49.7,29.2,30.30,SSE,152,5.0,5.0,45,0.00,,,0.00,Wunderground v.1.15,2013-03-29 01:49:00,
2013-03-28 19:55:00,49.2,28.7,30.30,SSE,157,5.0,5.0,45,0.00,,,0.00,Wunderground v.1.15,2013-03-29 01:55:00,
2013-03-28 20:03:00,49.1,29.2,30.30,SSE,159,5.0,6.0,46,0.00,,,0.00,Wunderground v.1.15,2013-03-29 02:03:00,
2013-03-28 20:09:00,48.7,29.4,30.30,SSE,159,5.0,5.0,47,0.00,,,0.00,Wunderground v.1.15,2013-03-29 02:09:00,
2013-03-28 20:15:00,48.4,29.1,30.30,SSE,153,5.0,6.0,47,0.00,,,0.00,Wunderground v.1.15,2013-03-29 02:15:00,
2013-03-28 20:20:00,48.2,28.9,30.30,SSE,156,5.0,5.0,47,0.00,,,0.00,Wunderground v.1.15,2013-03-29 02:20:00,
2013-03-28 20:27:00,48.1,28.8,30.30,SSE,154,5.0,6.0,47,0.00,,,0.00,Wunderground v.1.15,2013-03-29 02:27:00,
2013-03-28 20:34:00,48.2,28.9,30.30,SSE,161,5.0,5.0,47,0.00,,,0.00,Wunderground v.1.15,2013-03-29 02:34:00,
2013-03-28 20:40:00,48.5,29.2,30.30,SSE,162,5.0,5.0,47,0.00,,,0.00,Wunderground v.1.15,2013-03-29 02:40:00,
2013-03-28 20:51:00,48.2,28.9,30.30,SSE,160,5.0,5.0,47,0.00,,,0.00,Wunderground v.1.15,2013-03-29 02:51:00,
2013-03-28 20:57:00,47.6,28.9,30.30,SSE,147,5.0,6.0,48,0.00,,,0.00,Wunderground v.1.15,2013-03-29 02:57:00,
2013-03-28 21:57:00,45.1,28.5,30.31,SSW,211,1.0,2.0,52,0.00,,,0.00,Wunderground v.1.15,2013-03-29 03:57:00,
2013-03-28 23:32:00,44.6,28.5,30.31,SSW,199,1.0,3.0,53,0.00,,,0.00,Wunderground v.1.15,2013-03-29 05:32:00,
2013-03-28 23:39:00,45.5,28.4,30.31,SSW,209,3.0,5.0,51,0.00,,,0.00,Wunderground v.1.15,2013-03-29 05:39:00,
2013-03-28 23:47:00,46.4,28.8,30.31,SSW,213,4.0,6.0,50,0.00,,,0.00,Wunderground v.1.15,2013-03-29 05:47:00,